Location: *
(50.9167°S, 179.4000°W)
Time: 21:12:37
(UTC+00:00)

Spot 4 Rocket - Pass Details

Date: 03 March 2024
Orbit: 773 x 777 km, 98.8° (Epoch: 16 April)

Event Time Altitude Azimuth Distance (km) Brightness Sun altitude
Rises 16:45:16 0° 10° (N) 3,258 7.1 -7.9°
Reaches altitude 10° 16:47:35 10° 7° (N) 2,339 6.4 -7.6°
Maximum altitude 16:52:44 68° 284° (WNW) 852 4.1 -6.8°
Drops below altitude 10° 16:57:57 10° 200° (SSW) 2,370 6.5 -6.0°
Sets 17:00:19 0° 197° (SSW) 3,305 7.3 -5.7°
